2025-013E (62733 NORAD) Tracking and Keplerian Element Data

This shows tracking and keplerian element data for the satellite.

Feedback or suggestion? Click here.




ElementValue
Catalog62733
Name2025-013E
Epoch Orbit5021
Epoch Day354.27632463
Epoch Year2025
RAAN158.8604
Inclination97.6375
Eccentricity0.0007531
Argument of Perigee271.5968
Mean Anonmoly88.4398
Mean Motion15.09464158
Decay Rate3.6E-05
L11 62733U 25013E 25354.27632463 .00003600 00000+0 22875-3 0 9999
L22 62733 97.6375 158.8604 0007531 271.5968 88.4398 15.09464158 50217



Live tracking and technical data element details for 2025-013E (NORAD 62733). 2025-013E can be tracked NOW for your location showing map with azimuth and elevation plus other details from your city location.







IsCatalogInMostPopularTable: catalog: 62733, numindb: 233
Update: records affected: 1



GetName: 62733 2025-013E

Hit Count: updated at: Tue, 20 Jan 2026 18:51:24 GMT